Regional Weather Roundup
Issued by NWS

Home | Current Version | Previous Version | Text Only | Print | Product List | Glossary On
Versions: 1 2 3 4 5 6 7 8 9 10 11 12 13 14 15 16 17 18 19 20 21 22 23 24 25 26 27 28 29 30 31 32 33 34 35 36 37 38 39 40 41 42 43 44 45 46 47 48 49 50
000
ASHW40 PHFO 170130
RWRHI

WEATHER ROUNDUP FOR HAWAII
NATIONAL WEATHER SERVICE HONOLULU HI
300 PM HST WED APR 16 2014

THIS IS AN AUTOMATED REPORT THAT HAS NOT BEEN QUALITY CONTROLLED.

NOTE..."FAIR" INDICATES FEW OR NO CLOUDS BELOW 12,000 FEET WITH NO
SIGNIFICANT WEATHER AND/OR OBSTRUCTIONS TO VISIBILITY.

* - THESE SITES REPORT LIMITED FIELDS

HIZ001>004-170200-
KAUAI-NIIHAU-

CITY           SKY/WX    TMP DP  RH WIND       PRES   REMARKS
LIHUE APT      PTSUNNY   79  68  69 NE16      30.10F
PORT ALLEN*      N/A     82 N/A N/A E22G30      N/A
POIPU*           N/A     81 N/A N/A NE10G22     N/A
PRINCEVILLE*   NOT AVBL
KOKOLE POINT*  NOT AVBL
MOLOAA DAIRY*  NOT AVBL
WAIMEA HTS*    NOT AVBL
PUU OPAE*      NOT AVBL
PUU LUA*       NOT AVBL
MAKAHA RIDGE*    N/A     82  63  51 SE1G7       N/A
$$

HIZ005>011-170200-
OAHU-

CITY           SKY/WX    TMP DP  RH WIND       PRES   REMARKS
HONOLULU       MOSUNNY   82  61  48 E17G28    30.05S
KALAELOA       MOSUNNY   83  60  45 E15G23    30.04F
KANEOHE MCB    NOT AVBL
WHEELER FIELD  FAIR      77  61  57 NE16G23   30.06F
BELLOWS*       NOT AVBL
KAHUKU*          N/A    N/A N/A N/A NE10G20     N/A
WHEELER*       NOT AVBL
WAIANAE HARBOR NOT AVBL
DILLINGHAM*    NOT AVBL
KAHUKU TRN*      N/A     68  63  83 E14G29      N/A
KAWAILOA*      NOT AVBL
KII*             N/A     79  66  65 E17         N/A
MAKUA RANGE*     N/A     86  68  54 E12G30      N/A
OAHU FOREST NW NOT AVBL
SCHOFIELD BRK* NOT AVBL
SCHOFIELD S*     N/A     75 N/A N/A NE1         N/A
WAIANAE VLY*   NOT AVBL
KUAOKALA*      NOT AVBL
HONOULIUULI*   NOT AVBL
MOKUOLOE IS*     N/A    N/A N/A N/A MISG        N/A
PALEHUA*       NOT AVBL
WAIAWA PHB*    NOT AVBL
$$

HIZ012>013-170200-
MOLOKAI-

CITY           SKY/WX    TMP DP  RH WIND       PRES   REMARKS
MOLOKAI AIRPT  MOSUNNY   78  68  71 NE14G25   30.06F
KALAUPAPA      NOT AVBL
MAKAPULAPAI*   NOT AVBL
MOLOKAI 1*     NOT AVBL
PUU ALII*        N/A     57  55  94 E2G12       N/A
$$

HIZ016-170200-
KAHOOLAWE-

CITY           SKY/WX    TMP DP  RH WIND       PRES   REMARKS
KAHOOLAWE*     NOT AVBL
HAKIOAWA*        N/A     76  65  68 MISG      30.14F
HONOKANAIA*      N/A     85  61  44 NE20G40   30.03F
KANELOA*       NOT AVBL
KEALIALALO*      N/A    N/A N/A N/A E18G38    30.34F
LUA MAKIKA*    NOT AVBL
$$

HIZ014>015-170200-
LANAI-

CITY           SKY/WX    TMP DP  RH WIND       PRES   REMARKS
LANAI CITY     FAIR      80  63  56 NE16G25   30.08F
LANAI 1*       NOT AVBL
$$

HIZ017>028-170200-
MAUI-

CITY           SKY/WX    TMP DP  RH WIND       PRES   REMARKS
KAHULUI        MOSUNNY   80  64  58 NE21G30   30.04F
KAPALUA-W MAUI LGT RAIN  77  66  69 NE22      30.05F
HANA AIRPORT   NOT AVBL
HANA*            N/A     79 N/A N/A E10G16      N/A
HALEAKALA SUMM   N/A     50   9  18 E23G39      N/A
MAALAEA BAY*   NOT AVBL
HALEAKALA*     NOT AVBL
KAUPO GAP*     NOT AVBL
KULA 1*          N/A     56  55  95 W5          N/A
$$

HIZ023>026-170200-
BIG ISLAND OF HAWAII COAST AND LOWER SLOPES-

CITY           SKY/WX    TMP DP  RH WIND       PRES   REMARKS
KAILUA KONA    PTSUNNY   82  66  58 S13       29.98F
HILO           MOSUNNY   81  69  67 E9        30.06F
HONOKAA*       NOT AVBL
KAWAIHAE MWT*    N/A     81 N/A N/A SW17G24     N/A
KAWAIHAE*        N/A     79 N/A N/A SW17        N/A
SOUTH POINT*     N/A     77 N/A N/A E28G37      N/A
UPOLU AIRPORT*   N/A    N/A N/A N/A NE23G32     N/A
KAMUELA*       MOCLDY    72  59  64 N21       30.09F
HAKALAU*         N/A     61  50  68 E6G12       N/A
KALOKO-HONOKO*   N/A     81  66  61 S6G12     29.98
PALI 2*          N/A     73  50  43 N20G31      N/A
KEALAKOMO*       N/A     81  63  54 E20G30      N/A
KAUPULEHU*     NOT AVBL
KAPAPALA*        N/A     77  54  44 NE12G25     N/A
LOWER KAHUKU*  NOT AVBL
PUHE CS*       NOT AVBL
PUHO CS*         N/A     79  64  59 W3          N/A
PTA KEAMUKU*     N/A     72  59  64 NE26G38     N/A
WAIKOLOA*      NOT AVBL
$$

HIZ027>028-170200-
BIG ISLAND OF HAWAII INTERIOR AND SUMMMITS-

CITY           SKY/WX    TMP DP  RH WIND       PRES   REMARKS
BRADSHAW FIELD MOSUNNY   66  50  55 S13G23    30.31F
MK VISITOR CEN NOT AVBL
MAUNA KEA*       N/A     46 -17   6 E17         N/A
MAUNA LOA*       N/A     57 -42   1 MISG        N/A
MAUNA LOA 1*     N/A    N/A N/A N/A MISG        N/A
PTA KIPUKA*      N/A     66  55  68 NW12G21     N/A
PTA RANGE 17*    N/A     72  46  40 E9G28       N/A
PTA WEST*        N/A     72  57  60 W14G25      N/A
NENE CABIN*    NOT AVBL
AHUMOA*        NOT AVBL
PTA PORTABLE*  NOT AVBL
PUU MALI*      NOT AVBL
$$

HIC003-170200-
NORTHWEST ISLANDS-

CITY           SKY/WX    TMP DP  RH WIND       PRES   REMARKS
MIDWAY ISLAND  SUNNY     79  73  83 S18       30.06F
MIDWAY NOS*    NOT AVBL
FRENCH FRIGATE NOT AVBL
$$

PHZ110>124-180-170200-
BUOY REPORTS

STATION/POSITION TIME  TEMP    WIND        PRES    WAVE   SWELL
                       AIR SEA DIR/SP/G            HT/PER HT/DIR
                 (UTC) (F)     (DEG/KT/KT) (MB)    (FT/S) (FT/D)
BUOY 51001       NOT AVBL
BUOY 51101       0100   72 74   80/ 16/ 19 1020.6F   9/15   8/320
BUOY 51100       0100   73 74   70/ 16/ 17 1019.1F
BUOY 51003       0100   77 78   70/ 17/ 23 1016.2F   8/ 8
BUOY 51004       0100   77 77   60/ 19/ 21 1013.2F   8/11   5
BARBERS PT BUOY  NOT AVBL
WAIMEA BAY BUOY  0100      75                N/A     6/ 8   2/ 50
KAILUA BAY BUOY  0100      75                N/A     9/10   3/ 70
LANAI BUOY       0100      77                N/A     2/13   2/190
BARBERS PT 2     0100      77                N/A     3/14   2/190
PAUWELA MAUI     NOT AVBL
HILO             0100      78                N/A     8/ 9   3/ 60
KANEOHE BAY BUOY 0100      75                N/A     8/11   3/ 60
HANALEI KAUAI    0100      77                N/A     7/ 9   3/300
KAHULUI HARBOR   0100   76 76   50/ 18/ 24 1016.7F
HONOLULU HARBOR  0100   80      90/  5/ 13 1017.2F
KILO NALU        NOT AVBL
HILO HARBOR      0100   82 77   40/  7/ 10 1017.2F
MOKUOLOE         0100   77 74   90/ 13/ 18 1018.4F
NAWILIWILI       0100      76                N/A
WHOTS BUOY       NOT AVBL
BUOY 51028       NOT AVBL
$$

......................KEY........................................
  SKY/WX - SKY CONDITIONS/PRESENT WEATHER
  TMP    - TEMPERATURE IN FAHRENHEIT
  DWPT   - DEWPOINT IN FAHRENHEIT
  RH     - RELATIVE HUMIDITY IN PERCENT
  WIND   - DIRECTION AND SPEED /MPH FOR ISLANDS...KTS FOR BUOYS/
  PRES   - MEAN SEA LEVEL PRESSURE IN INCHES OF HG
  VSB    - VISIBILITY IN MILES
  HX     - HEAT INDEX
  WCI    - WIND CHILL INDEX
  VRB    - VARIABLE WIND DIRECTION
  N/A    - NOT AVAILABLE



USA.gov is the U.S. government's official web portal to all federal, state and local government web resources and services.